This is the latest recevied weather packets stored in our database for station/object W5GMO. If no packets are shown the sender has not sent any weather packets the latest 10 day(s).
| Time | Temp. | Humidity | Pressure | Rain* | Wind** | Luminosity | Snow |
|---|---|---|---|---|---|---|---|
| 1788480363 | 31.11° C | 1% | 1014.6 hPa | 0 mm | - | 0 W/m² | - |
| 1788480059 | 31.11° C | 1% | 1014.5 hPa | 0 mm | - | 0 W/m² | - |
| 1788479758 | 31.67° C | 1% | 1014.3 hPa | 0 mm | - | 0 W/m² | - |
| 1788479455 | 31.67° C | 1% | 1014.3 hPa | 0 mm | - | 0 W/m² | - |
| 1788479149 | 31.67° C | 1% | 1014.3 hPa | 0 mm | - | 0 W/m² | - |
| 1788478845 | 31.67° C | 1% | 1014 hPa | 0 mm | - | 1 W/m² | - |
| 1788478541 | 31.67° C | 1% | 1013.8 hPa | 0 mm | - | 2 W/m² | - |
| 1788478236 | 31.67° C | 1% | 1013.8 hPa | 0 mm | - | 3 W/m² | - |
| 1788477932 | 31.67° C | 1% | 1013.8 hPa | 0 mm | - | 5 W/m² | - |
| 1788477627 | 31.67° C | 1% | 1013.5 hPa | 0 mm | - | 8 W/m² | - |
| 1788477321 | 32.22° C | 1% | 1013.8 hPa | 0 mm | - | 12 W/m² | - |
| 1788477015 | 32.22° C | 1% | 1013.8 hPa | 0 mm | - | 15 W/m² | - |
| 1788476712 | 32.22° C | 1% | 1013.8 hPa | 0 mm | - | 18 W/m² | - |
| 1788476409 | 32.22° C | 1% | 1013.8 hPa | 0 mm | - | 20 W/m² | - |
| 1788476103 | 32.22° C | 1% | 1013.6 hPa | 0 mm | - | 23 W/m² | - |
| 1788475799 | 32.78° C | 1% | 1013.6 hPa | 0 mm | - | 25 W/m² | - |
| 1788475495 | 32.78° C | 1% | 1013.5 hPa | 0 mm | - | 26 W/m² | - |
| 1788475190 | 32.78° C | 1% | 1013.6 hPa | 0 mm | - | 26 W/m² | - |
| 1788474890 | 32.78° C | 1% | 1013.4 hPa | 0 mm | - | 31 W/m² | - |
| 1788474589 | 33.33° C | 1% | 1013.6 hPa | 0 mm | - | 54 W/m² | - |
| 1788474284 | 33.33° C | 1% | 1013.3 hPa | 0 mm | - | 49 W/m² | - |
| 1788473983 | 33.33° C | 1% | 1013.3 hPa | 0 mm | - | 80 W/m² | - |
| 1788473678 | 33.89° C | 1% | 1013.4 hPa | 0 mm | - | 94 W/m² | - |
| 1788473375 | 33.89° C | 1% | 1013.3 hPa | 0 mm | - | 108 W/m² | - |
| 1788473070 | 33.33° C | 1% | 1013.3 hPa | 0 mm | - | 117 W/m² | - |
* Rain latest hour (hover to see other rain measurements)
** Current wind speed in m/s (hover to see current wind gust speed)